Location: Gönnheim
(49.4488°N, 8.2383°E)
Time: 17:30:42
(UTC+00:00)

Cosmos 1805 Rocket - Pass Details

Date: 19 May 2025
Orbit: 600 x 623 km, 82.5° (Epoch: 16 June)

Event Time Altitude Azimuth Distance (km) Brightness Sun altitude
Rises 23:02:02 0° 347° (NNW) 2,918 8.6 -20.4°
Reaches altitude 10° 23:04:17 10° 345° (NNW) 2,005 7.3 -20.4°
Maximum altitude 23:08:41 68° 264° (W) 675 3.6 -20.5°
Enters shadow 23:09:38 51° 205° (SSW) 786 3.7 -20.5°
